Location: Lake Almanor
(40.2485°N, 121.1442°W)
Time: 07:27:18
(UTC-08:00)

STARLINK-1098 - Pass Details

Date: 02 February 2020
Orbit: 548 x 551 km, 53.0° (Epoch: 28 February)

Event Time Altitude Azimuth Distance (km) Brightness Sun altitude
Rises 19:24:19 0° 294° (WNW) 2,720 8.2 -23.2°
Reaches altitude 10° 19:27:12 10° 273° (W) 1,823 7.4 -23.7°
Maximum altitude 19:29:50 17° 234° (SW) 1,447 6.4 -24.2°
Drops below altitude 10° 19:32:28 10° 194° (SSW) 1,815 6.4 -24.7°
Enters shadow 19:33:56 - 181° (S) 2,240 6.7 -25.0°
